N920LG MYEF-MDPP

Flight info

Callsign N920LG
Flight time N/A
Altitude 9000
Route RUMFO DCT MALVN
Aircraft BE36/L-BDFGLORY/S

Departure

Time N/A
Airport Exuma International Airport (MYEF)

Arrival

Time 2026-05-03 21:10
Airport Gregorio Luperon International Airport (MDPP)
Time Latitude Longitude Altitude Speed Heading
2026-05-03 20:15 21.22199 -72.48165 9029 ft 159 kts 131°
2026-05-03 20:15 21.21524 -72.47245 9029 ft 159 kts 131°
2026-05-03 20:15 21.20843 -72.46316 9026 ft 158 kts 130°
2026-05-03 20:15 21.20166 -72.45391 9024 ft 157 kts 130°
2026-05-03 20:16 21.19494 -72.44472 9028 ft 157 kts 129°
2026-05-03 20:16 21.18822 -72.43553 9036 ft 157 kts 130°
2026-05-03 20:16 21.18144 -72.42631 9030 ft 157 kts 130°
2026-05-03 20:16 21.17468 -72.41711 9028 ft 157 kts 130°
2026-05-03 20:17 21.16796 -72.40793 9027 ft 156 kts 130°
2026-05-03 20:17 21.16124 -72.39877 9027 ft 156 kts 130°
2026-05-03 20:17 21.15453 -72.38961 9031 ft 156 kts 130°
2026-05-03 20:17 21.14781 -72.38045 9028 ft 156 kts 130°
2026-05-03 20:18 21.14108 -72.37128 9031 ft 156 kts 130°
2026-05-03 20:18 21.13438 -72.36215 9029 ft 156 kts 130°
2026-05-03 20:18 21.12765 -72.35300 9029 ft 156 kts 130°
2026-05-03 20:18 21.12102 -72.34397 9030 ft 156 kts 130°
2026-05-03 20:19 21.11432 -72.33481 9028 ft 156 kts 130°
2026-05-03 20:19 21.10762 -72.32568 9028 ft 156 kts 130°
2026-05-03 20:19 21.10091 -72.31654 9029 ft 156 kts 130°
2026-05-03 20:19 21.09419 -72.30740 9030 ft 156 kts 130°
2026-05-03 20:20 21.08746 -72.29824 9034 ft 156 kts 130°
2026-05-03 20:20 21.08074 -72.28910 9031 ft 156 kts 130°
2026-05-03 20:20 21.07400 -72.27993 9031 ft 156 kts 130°
2026-05-03 20:20 21.06728 -72.27080 9031 ft 157 kts 130°
2026-05-03 20:21 21.06054 -72.26164 9029 ft 157 kts 130°
2026-05-03 20:21 21.05607 -72.25557 9028 ft 157 kts 130°
2026-05-03 20:21 21.04934 -72.24640 9027 ft 157 kts 130°
2026-05-03 20:21 21.04261 -72.23723 9028 ft 157 kts 130°
2026-05-03 20:22 21.03586 -72.22806 9028 ft 157 kts 131°
2026-05-03 20:22 21.02912 -72.21888 9028 ft 157 kts 130°
2026-05-03 20:22 21.02235 -72.20970 9030 ft 157 kts 131°
2026-05-03 20:22 21.01559 -72.20051 9032 ft 157 kts 131°
2026-05-03 20:23 21.00880 -72.19132 9033 ft 157 kts 130°
2026-05-03 20:23 21.00203 -72.18212 9027 ft 157 kts 131°
2026-05-03 20:23 20.99527 -72.17294 9026 ft 157 kts 130°
2026-05-03 20:23 20.98853 -72.16375 9028 ft 157 kts 130°
2026-05-03 20:24 20.98176 -72.15456 9037 ft 158 kts 130°
2026-05-03 20:24 20.97494 -72.14533 9031 ft 158 kts 130°
2026-05-03 20:24 20.96823 -72.13622 9030 ft 158 kts 131°
2026-05-03 20:24 20.96142 -72.12700 9027 ft 158 kts 131°
2026-05-03 20:25 20.95463 -72.11775 9025 ft 157 kts 131°
2026-05-03 20:25 20.94786 -72.10854 9028 ft 157 kts 131°
2026-05-03 20:25 20.94109 -72.09936 9035 ft 157 kts 131°
2026-05-03 20:25 20.93431 -72.09021 9034 ft 157 kts 131°
2026-05-03 20:26 20.92757 -72.08105 9024 ft 157 kts 131°
2026-05-03 20:26 20.92083 -72.07188 9025 ft 156 kts 131°
2026-05-03 20:26 20.91408 -72.06275 9026 ft 157 kts 130°
2026-05-03 20:26 20.90732 -72.05362 9024 ft 156 kts 131°
2026-05-03 20:27 20.90057 -72.04447 9023 ft 156 kts 131°
2026-05-03 20:27 20.89385 -72.03535 9022 ft 156 kts 130°
2026-05-03 20:27 20.88722 -72.02635 9028 ft 156 kts 130°
2026-05-03 20:27 20.88052 -72.01727 9035 ft 155 kts 130°
2026-05-03 20:28 20.87380 -72.00818 9037 ft 155 kts 130°
2026-05-03 20:28 20.86712 -71.99912 9040 ft 155 kts 131°
2026-05-03 20:28 20.86043 -71.99008 9042 ft 155 kts 130°
2026-05-03 20:28 20.85369 -71.98098 9043 ft 155 kts 130°
2026-05-03 20:29 20.84700 -71.97191 9043 ft 155 kts 130°
2026-05-03 20:29 20.84029 -71.96284 9043 ft 156 kts 131°
2026-05-03 20:29 20.83357 -71.95376 9042 ft 156 kts 131°
2026-05-03 20:29 20.82694 -71.94478 9042 ft 156 kts 131°
2026-05-03 20:30 20.82015 -71.93560 9046 ft 156 kts 130°
2026-05-03 20:30 20.81351 -71.92662 9044 ft 156 kts 130°
2026-05-03 20:30 20.80678 -71.91755 9042 ft 156 kts 131°
2026-05-03 20:30 20.80008 -71.90849 9040 ft 155 kts 130°
2026-05-03 20:31 20.79339 -71.89942 9044 ft 155 kts 130°
2026-05-03 20:31 20.78668 -71.89036 9044 ft 155 kts 130°
2026-05-03 20:31 20.77998 -71.88130 9043 ft 155 kts 131°
2026-05-03 20:31 20.77328 -71.87225 9043 ft 155 kts 132°
2026-05-03 20:32 20.76660 -71.86322 9042 ft 155 kts 130°
2026-05-03 20:32 20.75990 -71.85420 9042 ft 155 kts 130°
2026-05-03 20:32 20.75324 -71.84517 9045 ft 155 kts 132°
2026-05-03 20:32 20.74655 -71.83615 9046 ft 155 kts 132°
2026-05-03 20:33 20.73985 -71.82713 9044 ft 155 kts 131°
2026-05-03 20:33 20.73327 -71.81824 9043 ft 155 kts 132°
2026-05-03 20:33 20.72661 -71.80923 9042 ft 155 kts 131°
2026-05-03 20:33 20.71991 -71.80022 9042 ft 154 kts 132°
2026-05-03 20:34 20.71322 -71.79127 9046 ft 154 kts 132°
2026-05-03 20:34 20.70654 -71.78228 9047 ft 155 kts 132°
2026-05-03 20:34 20.69987 -71.77327 9048 ft 155 kts 130°
2026-05-03 20:34 20.69319 -71.76424 9047 ft 155 kts 131°
2026-05-03 20:35 20.68649 -71.75521 9039 ft 155 kts 131°
2026-05-03 20:35 20.67981 -71.74616 9039 ft 155 kts 131°
2026-05-03 20:35 20.67315 -71.73717 9038 ft 154 kts 131°
2026-05-03 20:35 20.66650 -71.72821 9040 ft 154 kts 131°
2026-05-03 20:36 20.65993 -71.71931 9044 ft 154 kts 132°
2026-05-03 20:36 20.65325 -71.71035 9043 ft 154 kts 132°
2026-05-03 20:36 20.64661 -71.70136 9043 ft 154 kts 131°
2026-05-03 20:36 20.63992 -71.69239 9045 ft 155 kts 131°
2026-05-03 20:37 20.63321 -71.68338 9047 ft 155 kts 130°
2026-05-03 20:37 20.62650 -71.67436 9047 ft 155 kts 131°
2026-05-03 20:37 20.61977 -71.66531 9046 ft 155 kts 132°
2026-05-03 20:37 20.61304 -71.65628 9045 ft 155 kts 131°
2026-05-03 20:38 20.60632 -71.64724 9043 ft 155 kts 132°
2026-05-03 20:38 20.59959 -71.63822 9041 ft 155 kts 131°
2026-05-03 20:38 20.59289 -71.62919 9038 ft 155 kts 130°
2026-05-03 20:38 20.58622 -71.62017 9035 ft 154 kts 131°
2026-05-03 20:39 20.57958 -71.61119 9035 ft 154 kts 130°
2026-05-03 20:39 20.57295 -71.60223 9039 ft 154 kts 131°
2026-05-03 20:39 20.56627 -71.59326 9041 ft 154 kts 131°
2026-05-03 20:39 20.55963 -71.58437 9040 ft 154 kts 133°
2026-05-03 20:40 20.55329 -71.57591 9040 ft 154 kts 132°
2026-05-03 20:40 20.54665 -71.56697 9043 ft 154 kts 131°
2026-05-03 20:40 20.53997 -71.55803 9045 ft 154 kts 131°
2026-05-03 20:40 20.53331 -71.54907 9042 ft 154 kts 132°
2026-05-03 20:41 20.52665 -71.54009 9044 ft 154 kts 133°
2026-05-03 20:41 20.51997 -71.53110 9040 ft 155 kts 131°
2026-05-03 20:41 20.51325 -71.52208 9039 ft 155 kts 131°
2026-05-03 20:41 20.50654 -71.51306 9038 ft 155 kts 131°
2026-05-03 20:42 20.49982 -71.50403 9043 ft 156 kts 131°
2026-05-03 20:42 20.49306 -71.49498 9045 ft 156 kts 133°
2026-05-03 20:42 20.48629 -71.48592 9045 ft 156 kts 133°
2026-05-03 20:42 20.47948 -71.47684 9044 ft 157 kts 131°
2026-05-03 20:43 20.47269 -71.46775 9040 ft 156 kts 133°
2026-05-03 20:43 20.46593 -71.45867 9040 ft 156 kts 132°
2026-05-03 20:43 20.45917 -71.44958 9041 ft 156 kts 132°
2026-05-03 20:43 20.45241 -71.44051 9041 ft 156 kts 133°
2026-05-03 20:44 20.44563 -71.43143 9041 ft 157 kts 131°
2026-05-03 20:44 20.43886 -71.42234 9041 ft 157 kts 133°
2026-05-03 20:44 20.43207 -71.41324 9041 ft 157 kts 133°
2026-05-03 20:44 20.42537 -71.40427 9040 ft 157 kts 131°
2026-05-03 20:45 20.41849 -71.39506 8978 ft 161 kts 130°
2026-05-03 20:45 20.41139 -71.38549 8856 ft 167 kts 130°
2026-05-03 20:45 20.40423 -71.37554 8733 ft 171 kts 129°
2026-05-03 20:45 20.39700 -71.36535 8615 ft 174 kts 130°
2026-05-03 20:46 20.38968 -71.35497 8488 ft 176 kts 130°
2026-05-03 20:46 20.38230 -71.34455 8370 ft 177 kts 129°
2026-05-03 20:46 20.37483 -71.33402 8250 ft 179 kts 131°
2026-05-03 20:46 20.36728 -71.32341 8127 ft 179 kts 130°
2026-05-03 20:47 20.35973 -71.31280 8006 ft 180 kts 129°
2026-05-03 20:47 20.35216 -71.30213 7878 ft 181 kts 130°
2026-05-03 20:47 20.34455 -71.29143 7763 ft 182 kts 129°
2026-05-03 20:47 20.33697 -71.28078 7650 ft 178 kts 130°
2026-05-03 20:48 20.32972 -71.27065 7519 ft 171 kts 129°
2026-05-03 20:48 20.32256 -71.26061 7391 ft 168 kts 129°
2026-05-03 20:48 20.31556 -71.25078 7266 ft 166 kts 130°
2026-05-03 20:48 20.30861 -71.24103 7144 ft 165 kts 129°
2026-05-03 20:49 20.30169 -71.23131 7014 ft 164 kts 130°
2026-05-03 20:49 20.29481 -71.22170 6893 ft 163 kts 131°
2026-05-03 20:49 20.28794 -71.21215 6772 ft 162 kts 129°
2026-05-03 20:49 20.28111 -71.20258 6654 ft 162 kts 129°
2026-05-03 20:50 20.27430 -71.19304 6539 ft 161 kts 130°
2026-05-03 20:50 20.26753 -71.18355 6422 ft 160 kts 130°
2026-05-03 20:50 20.26079 -71.17411 6299 ft 160 kts 129°
2026-05-03 20:50 20.25402 -71.16464 6173 ft 160 kts 129°
2026-05-03 20:51 20.24735 -71.15533 6053 ft 161 kts 129°
2026-05-03 20:51 20.24072 -71.14609 5944 ft 162 kts 130°
2026-05-03 20:51 20.23399 -71.13668 5832 ft 162 kts 129°
2026-05-03 20:51 20.22706 -71.12695 5713 ft 163 kts 129°
2026-05-03 20:52 20.22026 -71.11747 5595 ft 163 kts 130°
2026-05-03 20:52 20.21338 -71.10782 5478 ft 164 kts 130°
2026-05-03 20:52 20.20649 -71.09818 5370 ft 164 kts 130°
2026-05-03 20:52 20.19957 -71.08856 5258 ft 164 kts 130°
2026-05-03 20:53 20.19263 -71.07886 5147 ft 164 kts 131°
2026-05-03 20:53 20.18574 -71.06920 5031 ft 164 kts 130°
2026-05-03 20:53 20.17884 -71.05955 4917 ft 164 kts 131°
2026-05-03 20:53 20.17194 -71.04994 4798 ft 163 kts 131°
2026-05-03 20:54 20.16508 -71.04033 4677 ft 163 kts 130°
2026-05-03 20:54 20.15131 -71.02110 4439 ft 163 kts 131°
2026-05-03 20:54 20.14438 -71.01150 4313 ft 163 kts 130°
2026-05-03 20:55 20.13749 -71.00190 4178 ft 163 kts 129°
2026-05-03 20:55 20.13060 -70.99228 4063 ft 163 kts 129°
2026-05-03 20:55 20.12376 -70.98266 4042 ft 164 kts 130°
2026-05-03 20:55 20.11681 -70.97292 4033 ft 165 kts 130°
2026-05-03 20:56 20.10990 -70.96327 4028 ft 163 kts 130°
2026-05-03 20:56 20.10304 -70.95374 4025 ft 162 kts 129°
2026-05-03 20:56 20.09623 -70.94429 4025 ft 160 kts 130°
2026-05-03 20:56 20.08961 -70.93506 4025 ft 159 kts 130°
2026-05-03 20:57 20.08291 -70.92574 4025 ft 158 kts 129°
2026-05-03 20:57 20.07622 -70.91643 4025 ft 158 kts 130°
2026-05-03 20:57 20.06951 -70.90710 4023 ft 159 kts 129°
2026-05-03 20:57 20.06281 -70.89780 4023 ft 158 kts 129°
2026-05-03 20:58 20.05616 -70.88853 4023 ft 158 kts 129°
2026-05-03 20:58 20.04948 -70.87924 4025 ft 158 kts 129°
2026-05-03 20:58 20.04280 -70.86993 4032 ft 159 kts 129°
2026-05-03 20:58 20.03608 -70.86057 4034 ft 160 kts 129°
2026-05-03 20:59 20.02934 -70.85118 4036 ft 159 kts 129°
2026-05-03 20:59 20.02264 -70.84188 4034 ft 159 kts 129°
2026-05-03 20:59 20.01591 -70.83254 4033 ft 160 kts 130°
2026-05-03 20:59 20.00917 -70.82318 4031 ft 159 kts 129°
2026-05-03 21:00 20.00183 -70.81460 4031 ft 155 kts 142°
2026-05-03 21:00 19.99904 -70.81239 4031 ft 154 kts 149°
2026-05-03 21:00 19.98407 -70.80244 4012 ft 151 kts 148°
2026-05-03 21:00 19.97543 -70.79619 4006 ft 150 kts 148°
2026-05-03 21:01 19.96682 -70.79000 4012 ft 149 kts 148°
2026-05-03 21:01 19.95863 -70.78423 4013 ft 149 kts 149°
2026-05-03 21:01 19.95000 -70.77815 4018 ft 149 kts 149°
2026-05-03 21:01 19.94134 -70.77211 4015 ft 149 kts 148°
2026-05-03 21:02 19.93284 -70.76616 4023 ft 150 kts 148°
2026-05-03 21:02 19.92412 -70.76008 4020 ft 150 kts 148°
2026-05-03 21:02 19.91535 -70.75395 4021 ft 152 kts 149°
2026-05-03 21:02 19.90641 -70.74772 4027 ft 155 kts 149°
2026-05-03 21:03 19.89740 -70.74144 4038 ft 155 kts 149°
2026-05-03 21:03 19.88835 -70.73517 4047 ft 155 kts 149°
2026-05-03 21:03 19.87941 -70.72890 4036 ft 154 kts 148°
2026-05-03 21:03 19.87038 -70.72260 4025 ft 156 kts 147°
2026-05-03 21:04 19.86118 -70.71620 3894 ft 156 kts 149°
2026-05-03 21:04 19.85221 -70.71001 3760 ft 152 kts 148°
2026-05-03 21:04 19.84344 -70.70389 3584 ft 150 kts 148°
2026-05-03 21:04 19.83490 -70.69793 3390 ft 148 kts 147°
2026-05-03 21:05 19.82628 -70.69192 3191 ft 147 kts 148°
2026-05-03 21:05 19.81785 -70.68607 2989 ft 142 kts 147°
2026-05-03 21:05 19.80964 -70.68035 2789 ft 140 kts 147°
2026-05-03 21:05 19.80144 -70.67471 2593 ft 141 kts 148°
2026-05-03 21:06 19.79245 -70.67058 2394 ft 142 kts 163°
2026-05-03 21:06 19.78283 -70.66786 2178 ft 144 kts 159°
2026-05-03 21:06 19.77324 -70.66459 1998 ft 145 kts 158°
2026-05-03 21:06 19.76349 -70.66126 1802 ft 148 kts 160°
2026-05-03 21:07 19.75360 -70.65808 1599 ft 149 kts 159°
2026-05-03 21:07 19.74416 -70.65383 1448 ft 143 kts 141°
2026-05-03 21:07 19.74010 -70.64868 1433 ft 131 kts 120°
2026-05-03 21:07 19.73856 -70.63743 1403 ft 108 kts 88°
2026-05-03 21:08 19.74056 -70.63015 1396 ft 95 kts 81°
2026-05-03 21:08 19.74273 -70.62408 1263 ft 85 kts 77°
2026-05-03 21:08 19.74465 -70.61826 1117 ft 82 kts 79°
2026-05-03 21:08 19.74566 -70.61441 1002 ft 79 kts 82°
2026-05-03 21:09 19.74711 -70.60875 801 ft 83 kts 78°
2026-05-03 21:09 19.74868 -70.60276 635 ft 86 kts 81°
2026-05-03 21:09 19.75022 -70.59638 449 ft 89 kts 74°
2026-05-03 21:09 19.75202 -70.59041 307 ft 81 kts 74°
2026-05-03 21:10 19.75375 -70.58484 101 ft 74 kts 83°
2026-05-03 21:10 19.75496 -70.58042 31 ft 52 kts 78°
2026-05-03 21:10 19.75580 -70.57717 29 ft 42 kts 71°
2026-05-03 21:10 19.75656 -70.57444 27 ft 33 kts 71°
2026-05-03 21:11 19.75702 -70.57284 27 ft 16 kts 77°
2026-05-03 21:11 19.75666 -70.57192 28 ft 0 kts 134°
2026-05-03 21:11 19.75640 -70.57163 28 ft 11 kts 131°
2026-05-03 21:11 19.75569 -70.57081 28 ft 19 kts 133°
2026-05-03 21:12 19.75539 -70.56978 29 ft 18 kts 74°
2026-05-03 21:12 19.75586 -70.56824 29 ft 25 kts 73°
2026-05-03 21:12 19.75622 -70.56699 29 ft 0 kts 72°
2026-05-03 21:12 19.75629 -70.56676 29 ft 8 kts 72°
2026-05-03 21:13 19.75652 -70.56600 29 ft 14 kts 71°
2026-05-03 21:13 19.75685 -70.56485 29 ft 18 kts 75°
2026-05-03 21:13 19.75705 -70.56418 29 ft 7 kts 73°
2026-05-03 21:13 19.75706 -70.56399 29 ft 1 kts 106°
2026-05-03 21:14 19.75698 -70.56366 29 ft 8 kts 100°
2026-05-03 21:14 19.75708 -70.56300 29 ft 7 kts 88°
2026-05-03 21:14 19.75658 -70.56277 29 ft 4 kts 162°
2026-05-03 21:14 19.75654 -70.56275 29 ft 0 kts 162°